TimeEST,TemperatureF,Dew PointF,Humidity,Sea Level PressureIn,VisibilityMPH,Wind Direction,Wind SpeedMPH,Gust SpeedMPH,PrecipitationIn,Events,Conditions,WindDirDegrees,DateUTC
12:51 AM,39.0,26.1,60,30.32,10.0,SW,11.5,-,N/A,,Clear,220,2013-11-15 05:51:00
1:51 AM,35.1,24.1,64,30.32,10.0,SSW,8.1,-,N/A,,Clear,210,2013-11-15 06:51:00
2:51 AM,37.0,24.1,59,30.32,10.0,South,4.6,-,N/A,,Clear,190,2013-11-15 07:51:00
3:51 AM,33.1,23.0,66,30.32,10.0,SSW,6.9,-,N/A,,Clear,210,2013-11-15 08:51:00
4:51 AM,33.1,24.1,70,30.32,10.0,SSW,8.1,-,N/A,,Clear,210,2013-11-15 09:51:00
5:51 AM,36.0,25.0,64,30.32,10.0,SW,11.5,-,N/A,,Clear,220,2013-11-15 10:51:00
6:51 AM,36.0,25.0,64,30.34,10.0,SW,10.4,-,N/A,,Clear,220,2013-11-15 11:51:00
7:51 AM,42.1,28.0,58,30.34,10.0,SW,9.2,-,N/A,,Clear,220,2013-11-15 12:51:00
8:51 AM,48.0,27.0,44,30.35,10.0,SW,12.7,-,N/A,,Clear,220,2013-11-15 13:51:00
9:51 AM,53.1,28.0,38,30.35,10.0,SW,10.4,-,N/A,,Clear,230,2013-11-15 14:51:00
10:51 AM,55.9,28.0,34,30.34,10.0,SW,11.5,-,N/A,,Clear,220,2013-11-15 15:51:00
11:51 AM,61.0,26.1,26,30.30,10.0,SW,13.8,-,N/A,,Clear,220,2013-11-15 16:51:00
12:51 PM,63.0,28.0,27,30.28,10.0,SSW,11.5,-,N/A,,Clear,210,2013-11-15 17:51:00
1:51 PM,62.1,34.0,35,30.26,10.0,SSW,9.2,-,N/A,,Clear,200,2013-11-15 18:51:00
2:51 PM,63.0,37.0,38,30.24,10.0,SSW,10.4,-,N/A,,Clear,200,2013-11-15 19:51:00
3:51 PM,62.1,39.0,43,30.24,10.0,SSW,8.1,-,N/A,,Clear,200,2013-11-15 20:51:00
4:51 PM,60.1,39.9,47,30.23,10.0,South,5.8,-,N/A,,Clear,170,2013-11-15 21:51:00
5:51 PM,61.0,42.1,50,30.24,10.0,South,6.9,-,N/A,,Clear,180,2013-11-15 22:51:00
6:51 PM,59.0,43.0,55,30.25,10.0,South,6.9,-,N/A,,Clear,180,2013-11-15 23:51:00
7:51 PM,59.0,43.0,55,30.26,10.0,South,6.9,-,N/A,,Partly Cloudy,190,2013-11-16 00:51:00
8:51 PM,57.9,43.0,58,30.25,10.0,South,5.8,-,N/A,,Clear,170,2013-11-16 01:51:00
9:51 PM,55.9,43.0,62,30.26,10.0,South,3.5,-,N/A,,Overcast,180,2013-11-16 02:51:00
10:51 PM,59.0,45.0,60,30.25,10.0,South,6.9,-,N/A,,Overcast,180,2013-11-16 03:51:00
11:51 PM,59.0,46.9,64,30.25,10.0,South,4.6,-,N/A,,Overcast,170,2013-11-16 04:51:00